Flag for Cyprus Weather past 2 weeks in Nicosia, Cyprus

Now
79 °F

Clear.


Feels Like: 78 °F
Forecast: 75 / 93 °F
Wind: 7 mph from West

Location: Ercan

Current Time: Aug 30, 2015 at 12:13:31 AM

Latest Report: Aug 29, 2015 at 11:20 PM


Visibility: 10 mi

Pressure: 29.83 "Hg

Humidity: 26%

Dew point: 41 °F

Location of NicosiaLocation

Historic Weather in Nicosia — Graph

°F

Nicosia temperature yesterday

Maximum temperature yesterday: 97 °F (at 1:50 PM)
Minimum temperature yesterday: 77 °F (at 3:50 AM)
Average temperature yesterday: 87 °F

Past Weeks' High & Low Weather Summary

 TemperatureHumidityPressure
High104 °F (Aug 16, 1:50 PM)94% (Aug 15, 6:50 AM)29.89 "Hg (Aug 15, 6:50 AM)
Low70 °F (Aug 21, 6:20 AM)10% (Aug 29, 3:20 PM)29.65 "Hg (Aug 22, 4:50 PM)
Average86 °F51%29.77 "Hg
* Reported Aug 14 10:20 PM — Aug 29 10:50 PM, Nicosia, Weather by CustomWeather, © 2015

Note: Actual official high and low records may vary slightly from our data, if they occured in-between our weather recording intervals... More about our weather records

Advertising

Nicosia weather history for previous 24 hours

 ConditionsComfort  
Time TempWeatherWind HumidityBarometerVisibility
10:50 PM
Sat, Aug 29
82 °FClear.8 mph20%29.83 "Hg10 mi
10:20 PM84 °FPassing clouds.7 mph22%29.86 "HgN/A
9:50 PM84 °FPassing clouds.6 mph25%29.83 "HgN/A
9:20 PM82 °FPassing clouds.3 mph30%29.83 "HgN/A
8:50 PM84 °FPassing clouds.No wind25%29.83 "HgN/A
8:20 PM84 °FPassing clouds.5 mph33%29.83 "HgN/A
7:50 PM86 °FPassing clouds.6 mph31%29.83 "HgN/A
7:20 PM88 °FPassing clouds.5 mph22%29.83 "HgN/A
6:50 PM91 °FPassing clouds.7 mph13%29.80 "HgN/A
6:20 PM93 °FPassing clouds.10 mph12%29.80 "HgN/A
5:50 PM95 °FPassing clouds.12 mph11%29.80 "HgN/A
5:20 PM95 °FPassing clouds.12 mph10%29.80 "HgN/A
4:50 PM97 °FPassing clouds.12 mph10%29.80 "HgN/A
4:20 PM97 °FPassing clouds.14 mph10%29.80 "HgN/A
3:50 PM97 °FPassing clouds.13 mph10%29.83 "HgN/A
3:20 PM97 °FPassing clouds.13 mph10%29.83 "HgN/A
2:50 PM95 °FPassing clouds.12 mph12%29.83 "HgN/A
2:20 PM97 °FPassing clouds.14 mph11%29.83 "HgN/A
1:50 PM97 °FPassing clouds.14 mph12%29.83 "HgN/A
12:50 PM95 °FPassing clouds.13 mph15%29.86 "HgN/A
12:20 PM93 °FPassing clouds.12 mph20%29.86 "HgN/A
11:50 AM93 °FPassing clouds.13 mph23%29.86 "HgN/A
11:20 AM93 °FPassing clouds.14 mph28%29.86 "HgN/A
10:50 AM91 °FPassing clouds.10 mph30%29.86 "HgN/A
10:20 AM91 °FPassing clouds.10 mph30%29.86 "HgN/A
9:50 AM90 °FSunny.12 mph31%29.86 "Hg10 mi
8:50 AM86 °FSunny.13 mph40%29.86 "Hg10 mi
8:20 AM84 °FPassing clouds.13 mph40%29.83 "HgN/A
7:50 AM82 °FPassing clouds.14 mph48%29.83 "HgN/A
7:20 AM81 °FPassing clouds.13 mph51%29.83 "HgN/A
6:50 AM77 °FClear.14 mph54%29.83 "Hg10 mi
5:50 AM77 °FClear.15 mph54%29.83 "Hg10 mi
5:20 AM77 °FClear.15 mph51%29.83 "Hg10 mi
4:50 AM77 °FPassing clouds.15 mph57%29.83 "HgN/A
4:20 AM77 °FClear.14 mph61%29.83 "Hg10 mi
3:50 AM77 °FClear.13 mph65%29.83 "Hg10 mi
3:20 AM79 °FClear.15 mph61%29.83 "Hg10 mi
2:50 AM79 °FClear.16 mph61%29.83 "Hg10 mi
2:20 AM79 °FClear.16 mph58%29.83 "Hg10 mi
1:50 AM79 °FClear.17 mph61%29.83 "Hg10 mi
12:50 AM79 °FClear.13 mph65%29.86 "Hg10 mi
12:20 AM79 °FClear.13 mph65%29.86 "Hg10 mi
Weather by CustomWeather, © 2015

See weather overviewHow to use our weather pages